| time (UTC) | temp F | wind direction | speed MPH | gust MPH | rain 1hr in | rain 24hr in | rain mn in | humidity % | barometer mb |
| 20260906023046 | 82 | 108 | 1.0 | 3.0 | 0.00 | 0.00 | 0.00 | 56 | 1013.1 |
| 20260906021545 | 83 | 101 | 0.0 | 3.0 | 0.00 | 0.00 | 0.00 | 54 | 1013.0 |
| 20260906020042 | 84 | 114 | 1.0 | 4.0 | 0.00 | 0.00 | 0.00 | 52 | 1012.5 |
| 20260906014545 | 85 | 134 | 3.0 | 5.0 | 0.00 | 0.00 | 0.00 | 51 | 1012.4 |
| 20260906013044 | 86 | 138 | 3.0 | 5.0 | 0.00 | 0.00 | 0.00 | 49 | 1012.2 |
| 20260906011546 | 87 | 124 | 4.0 | 6.0 | 0.00 | 0.00 | 0.00 | 47 | 1012.1 |
| 20260906010039 | 88 | 117 | 3.0 | 6.0 | 0.00 | 0.00 | 0.00 | 45 | 1012.2 |
| 20260906004539 | 90 | 129 | 3.0 | 7.0 | 0.00 | 0.00 | 0.00 | 43 | 1012.0 |
| 20260906003041 | 93 | 113 | 5.0 | 8.0 | 0.00 | 0.00 | 0.00 | 38 | 1012.0 |
| 20260906001541 | 95 | 113 | 5.0 | 10.0 | 0.00 | 0.00 | 0.00 | 37 | 1011.8 |
| 20260906000041 | 96 | 131 | 5.0 | 10.0 | 0.00 | 0.00 | 0.00 | 36 | 1011.8 |
| 20260905234540 | 96 | 111 | 5.0 | 15.0 | 0.00 | 0.00 | 0.00 | 36 | 1011.7 |
| 20260905233102 | 97 | 77 | 9.0 | 13.0 | 0.00 | 0.00 | 0.00 | 35 | 1011.6 |
| 20260905231551 | 97 | 87 | 8.0 | 12.0 | 0.00 | 0.00 | 0.00 | 35 | 1011.5 |
| 20260905230039 | 96 | 101 | 9.0 | 15.0 | 0.00 | 0.00 | 0.00 | 35 | 1011.6 |
| 20260905224605 | 97 | 119 | 9.0 | 15.0 | 0.00 | 0.00 | 0.00 | 35 | 1011.5 |
| 20260905223041 | 98 | 114 | 5.0 | 13.0 | 0.00 | 0.00 | 0.00 | 34 | 1011.5 |
| 20260905221540 | 98 | 119 | 8.0 | 16.0 | 0.00 | 0.00 | 0.00 | 35 | 1011.4 |
| 20260905220047 | 98 | 143 | 4.0 | 14.0 | 0.00 | 0.00 | 0.00 | 35 | 1011.4 |
| 20260905214542 | 99 | 86 | 7.0 | 11.0 | 0.00 | 0.00 | 0.00 | 34 | 1011.5 |
| 20260905213039 | 98 | 165 | 5.0 | 11.0 | 0.00 | 0.00 | 0.00 | 36 | 1011.8 |
| 20260905211541 | 97 | 120 | 7.0 | 16.0 | 0.00 | 0.00 | 0.00 | 38 | 1012.0 |
| 20260905210043 | 96 | 197 | 7.0 | 11.0 | 0.00 | 0.00 | 0.00 | 39 | 1012.2 |
| 20260905204541 | 95 | 123 | 8.0 | 17.0 | 0.00 | 0.00 | 0.00 | 41 | 1012.3 |
| 20260905203041 | 94 | 145 | 5.0 | 12.0 | 0.00 | 0.00 | 0.00 | 43 | 1012.4 |
| 20260905201543 | 94 | 74 | 9.0 | 15.0 | 0.00 | 0.00 | 0.00 | 44 | 1012.5 |
| 20260905200048 | 93 | 139 | 9.0 | 15.0 | 0.00 | 0.00 | 0.00 | 47 | 1013.0 |
| 20260905194539 | 93 | 105 | 7.0 | 13.0 | 0.00 | 0.00 | 0.00 | 45 | 1013.2 |
| 20260905193036 | 95 | 65 | 1.0 | 12.0 | 0.00 | 0.00 | 0.00 | 43 | 1013.6 |
| 20260905191548 | 95 | 94 | 6.0 | 10.0 | 0.00 | 0.00 | 0.00 | 43 | 1014.0 |
| 20260905190059 | 94 | 105 | 5.0 | 9.0 | 0.00 | 0.00 | 0.00 | 46 | 1014.1 |
| 20260905184557 | 95 | 92 | 1.0 | 6.0 | 0.00 | 0.00 | 0.00 | 45 | 1014.3 |
| 20260905183043 | 94 | 163 | 4.0 | 9.0 | 0.00 | 0.00 | 0.00 | 45 | 1014.5 |
| 20260905181543 | 93 | 147 | 3.0 | 8.0 | 0.00 | 0.00 | 0.00 | 51 | 1014.9 |
| 20260905180040 | 92 | 191 | 3.0 | 7.0 | 0.00 | 0.00 | 0.00 | 51 | 1015.0 |
| 20260905174545 | 90 | 224 | 3.0 | 5.0 | 0.00 | 0.00 | 0.00 | 54 | 1015.3 |
| 20260905173042 | 89 | 192 | 2.0 | 7.0 | 0.00 | 0.00 | 0.00 | 56 | 1015.4 |
| 20260905171541 | 89 | 231 | 4.0 | 8.0 | 0.00 | 0.00 | 0.00 | 55 | 1015.6 |
| 20260905170044 | 88 | 156 | 6.0 | 10.0 | 0.00 | 0.00 | 0.00 | 58 | 1015.7 |
| 20260905164538 | 88 | 219 | 4.0 | 10.0 | 0.00 | 0.00 | 0.00 | 59 | 1015.9 |
| 20260905163037 | 86 | 176 | 5.0 | 10.0 | 0.00 | 0.00 | 0.00 | 61 | 1015.8 |
| 20260905161543 | 86 | 128 | 7.0 | 12.0 | 0.00 | 0.00 | 0.00 | 62 | 1015.8 |
| 20260905160042 | 86 | 186 | 4.0 | 8.0 | 0.00 | 0.00 | 0.00 | 62 | 1015.8 |
| 20260905154537 | 86 | 198 | 4.0 | 8.0 | 0.00 | 0.00 | 0.00 | 65 | 1015.8 |
| 20260905153044 | 85 | 195 | 5.0 | 8.0 | 0.00 | 0.00 | 0.00 | 67 | 1015.8 |
| 20260905151543 | 82 | 207 | 4.0 | 7.0 | 0.00 | 0.00 | 0.00 | 72 | 1015.9 |
| 20260905150040 | 81 | 205 | 4.0 | 9.0 | 0.00 | 0.00 | 0.00 | 73 | 1015.9 |
| 20260905144545 | 82 | 226 | 4.0 | 9.0 | 0.00 | 0.00 | 0.00 | 72 | 1015.8 |
| 20260905143043 | 84 | 203 | 5.0 | 8.0 | 0.00 | 0.00 | 0.00 | 69 | 1015.8 |
| 20260905141545 | 82 | 186 | 3.0 | 10.0 | 0.00 | 0.00 | 0.00 | 73 | 1015.9 |
| 20260905140040 | 81 | 187 | 5.0 | 9.0 | 0.00 | 0.00 | 0.00 | 74 | 1015.7 |
| 20260905134544 | 80 | 152 | 3.0 | 6.0 | 0.00 | 0.00 | 0.00 | 76 | 1015.7 |
| 20260905133043 | 78 | 0 | 0.0 | 3.0 | 0.00 | 0.00 | 0.00 | 77 | 1015.5 |
| 20260905131555 | 77 | 0 | 1.0 | 4.0 | 0.00 | 0.00 | 0.00 | 81 | 1015.3 |
| 20260905130043 | 73 | 103 | 0.0 | 1.0 | 0.00 | 0.00 | 0.00 | 86 | 1015.1 |
| 20260905124548 | 70 | 0 | 0.0 | 1.0 | 0.00 | 0.00 | 0.00 | 89 | 1015.0 |
| 20260905123050 | 68 | 0 | 0.0 | 1.0 | 0.00 | 0.00 | 0.00 | 90 | 1014.9 |
| 20260905121538 | 67 | 0 | 0.0 | 0.0 | 0.00 | 0.00 | 0.00 | 90 | 1014.7 |
| 20260905120042 | 67 | 0 | 0.0 | 1.0 | 0.00 | 0.00 | 0.00 | 90 | 1014.6 |
| 20260905114544 | 68 | 0 | 0.0 | 0.0 | 0.00 | 0.00 | 0.00 | 90 | 1014.5 |
| 20260905113041 | 68 | 0 | 0.0 | 1.0 | 0.00 | 0.00 | 0.00 | 89 | 1014.4 |
| 20260905111551 | 68 | 279 | 1.0 | 2.0 | 0.00 | 0.00 | 0.00 | 89 | 1014.6 |
| 20260905110042 | 69 | 0 | 0.0 | 1.0 | 0.00 | 0.00 | 0.00 | 89 | 1014.4 |
| 20260905104541 | 68 | 0 | 0.0 | 0.0 | 0.00 | 0.00 | 0.00 | 89 | 1014.5 |
| 20260905103036 | 68 | 0 | 0.0 | 0.0 | 0.00 | 0.00 | 0.00 | 87 | 1014.4 |
| 20260905101550 | 69 | 0 | 0.0 | 0.0 | 0.00 | 0.00 | 0.00 | 86 | 1014.4 |
| 20260905100042 | 70 | 0 | 0.0 | 1.0 | 0.00 | 0.00 | 0.00 | 86 | 1014.4 |
| 20260905094540 | 70 | 0 | 0.0 | 1.0 | 0.00 | 0.00 | 0.00 | 85 | 1014.4 |
| 20260905093040 | 71 | 0 | 0.0 | 0.0 | 0.00 | 0.00 | 0.00 | 84 | 1014.4 |
| 20260905091546 | 71 | 0 | 0.0 | 1.0 | 0.00 | 0.00 | 0.00 | 84 | 1014.4 |
| 20260905090043 | 71 | 0 | 0.0 | 2.0 | 0.00 | 0.00 | 0.00 | 83 | 1014.3 |
| 20260905084559 | 72 | 0 | 0.0 | 0.0 | 0.00 | 0.00 | 0.00 | 82 | 1014.3 |
| 20260905083036 | 72 | 0 | 0.0 | 1.0 | 0.00 | 0.00 | 0.00 | 81 | 1014.3 |
| 20260905081544 | 73 | 0 | 0.0 | 2.0 | 0.00 | 0.00 | 0.00 | 80 | 1014.3 |
| 20260905080044 | 73 | 97 | 0.0 | 1.0 | 0.00 | 0.00 | 0.00 | 79 | 1014.3 |
| 20260905074542 | 73 | 127 | 2.0 | 5.0 | 0.00 | 0.00 | 0.00 | 78 | 1014.2 |
| 20260905073037 | 74 | 116 | 3.0 | 5.0 | 0.00 | 0.00 | 0.00 | 76 | 1014.4 |
| 20260905071535 | 75 | 103 | 3.0 | 5.0 | 0.00 | 0.00 | 0.00 | 75 | 1014.4 |
| 20260905070042 | 75 | 0 | 0.0 | 3.0 | 0.00 | 0.00 | 0.00 | 73 | 1014.6 |
| 20260905064542 | 76 | 119 | 4.0 | 7.0 | 0.00 | 0.00 | 0.00 | 72 | 1014.7 |
| 20260905063039 | 76 | 138 | 4.0 | 6.0 | 0.00 | 0.00 | 0.00 | 71 | 1014.6 |
| 20260905061542 | 76 | 123 | 3.0 | 6.0 | 0.00 | 0.00 | 0.00 | 70 | 1014.7 |
| 20260905060044 | 77 | 110 | 3.0 | 8.0 | 0.00 | 0.00 | 0.00 | 68 | 1014.7 |
| 20260905054542 | 78 | 150 | 6.0 | 11.0 | 0.00 | 0.00 | 0.00 | 67 | 1014.7 |
| 20260905053042 | 78 | 132 | 5.0 | 8.0 | 0.00 | 0.00 | 0.00 | 67 | 1014.6 |
| 20260905051539 | 78 | 146 | 5.0 | 9.0 | 0.00 | 0.00 | 0.00 | 67 | 1014.5 |
| 20260905050043 | 78 | 127 | 4.0 | 9.0 | 0.00 | 0.00 | 0.00 | 66 | 1014.6 |
| 20260905044544 | 78 | 119 | 5.0 | 7.0 | 0.00 | 0.00 | 0.00 | 66 | 1014.5 |
| 20260905043046 | 78 | 108 | 4.0 | 6.0 | 0.00 | 0.00 | 0.00 | 65 | 1014.6 |
| 20260905041540 | 78 | 127 | 1.0 | 3.0 | 0.00 | 0.00 | 0.00 | 64 | 1014.5 |
| 20260905040044 | 79 | 148 | 3.0 | 5.0 | 0.00 | 0.00 | 0.00 | 63 | 1014.7 |
| 20260905034547 | 79 | 109 | 5.0 | 6.0 | 0.00 | 0.00 | 0.00 | 62 | 1014.7 |
| 20260905033044 | 80 | 125 | 5.0 | 9.0 | 0.00 | 0.00 | 0.00 | 61 | 1014.6 |
| 20260905031544 | 81 | 144 | 7.0 | 11.0 | 0.00 | 0.00 | 0.00 | 60 | 1014.5 |
| 20260905030042 | 81 | 134 | 6.0 | 11.0 | 0.00 | 0.00 | 0.00 | 59 | 1014.3 |
| 20260905024544 | 80 | 123 | 7.0 | 10.0 | 0.00 | 0.00 | 0.00 | 62 | 1014.0 |